Suffern, NY

4:21 AM EST on February 06, 2016 (GMT -0500)
Montebello, NY | | Change Station
CLOSE
Current Station
Personal Weather Station
Location: Montebello, NY
Elevation: 358 ft
Nearby Weather Stations
Active Advisory: Special Statement Active Notice: Record Report, Local Storm Report

Elev 358 ft 41.14 °N, 74.12 °W | Updated 4 minutes ago

Partly Cloudy
Partly Cloudy
24.0 °F
Feels Like 24 °F
N
0.0
Wind Variable Wind from WSW
Gusts 0.0 mph

Today
High -- | Low -- °F
--% Chance of Precip.
Yesterday
High -- | Low -- °F
Precip. -- in
Pressure 30.38 in
Visibility 10.0 miles
Clouds Clear
Windchill 24 °F
Dew Point 19 °F
Humidity 82%
Rainfall 0.00 in
Snow Depth Not available.
7:02 AM 5:19 PM
Waning Crescent, 6% visible
METAR KCDW 060853Z 19003KT 10SM CLR M04/M08 A3036 RMK AO2 SLP288 T10441078 50004
Pressure 30.38 in
Visibility 10.0 miles
Clouds Clear
Windchill 24 °F
Dew Point 19 °F
Humidity 82%
Rainfall 0.00 in
Snow Depth Not available.
7:02 AM 5:19 PM
Waning Crescent, 6% visible
METAR KCDW 060853Z 19003KT 10SM CLR M04/M08 A3036 RMK AO2 SLP288 T10441078 50004

10-Day Weather Forecast

Almanac

Astronomy

Feb. 06, 2016 Rise Set
Actual Time
Civil Twilight
Nautical Twilight
Astronomical Twilight
Moon
Length of Visible Light
Length of Day
Tomorrow will be .
, % of the Moon is Illuminated

Today's Extremes

State Highs State Lows

Community

WunderPhotos

Upload Photos

1,890,933 photos uploaded!

WunderBlog® & News

Nearby

Air Quality

  Air Quality AQ Index Pollutant
Not available.

Snow Depth

Station Depth Elevation

Earthquake Activity

City Distance Mag. Time & Date
Minimum magnitude displayed is 2.5.

Coastal Water Temperatures

Place Temperature

Stations

Nearby Weather Stations

Station Location Temp. Windchill Dew Point Humidity Wind Precip. Elev Updated Type
                   

Watches & Warnings

Special Statement
Issued: 9:24 PM EST Feb. 5, 2016 – National Weather Service

Standing water from melted snow will refreeze tonight. Icy spots
are anticipated... especially on untreated surfaces. Use extra
caution when out driving or walking tonight into Saturday morning.



924 PM EST Fri Feb 5 2016

Standing water from melted snow will refreeze tonight. Icy spots
are anticipated... especially on untreated surfaces. Use extra
caution when out driving or walking tonight into Saturday morning.